Date,TemperatureHighF,TemperatureAvgF,TemperatureLowF,DewpointHighF,DewpointAvgF,DewpointLowF,HumidityHigh,HumidityAvg,HumidityLow,PressureMaxIn,PressureMinIn,WindSpeedMaxMPH,WindSpeedAvgMPH,GustSpeedMaxMPH,PrecipitationSumIn
2013-1-1,20.3,11.9,5.7,-3.6,-9.2,-12.5,46,36,25,29.32,29.21,3,1,7,0.00
2013-1-2,32.2,20.5,7.0,9.8,-1.4,-11.4,50,37,25,29.28,29.14,7,3,14,0.00
2013-1-3,27.7,23.3,12.9,14.6,7.8,-2.3,59,51,42,29.36,29.17,6,3,10,0.00
2013-1-4,33.4,22.0,10.6,11.5,4.8,-4.1,57,48,33,29.34,29.22,9,5,17,0.00
2013-1-5,37.8,29.1,18.7,28.4,17.7,8.2,77,63,38,29.31,29.02,9,4,16,0.03
2013-1-6,34.7,25.0,17.1,24.5,8.9,4.1,66,50,40,29.40,29.00,7,2,12,0.00
2013-1-7,42.1,28.5,16.3,17.9,9.0,3.8,58,45,21,29.39,29.16,11,5,27,0.00
2013-1-8,41.4,34.6,25.9,20.8,16.8,13.6,59,49,33,29.22,29.10,9,4,18,0.00
2013-1-9,43.7,35.7,26.6,20.2,14.5,7.2,59,43,25,29.55,29.09,10,4,21,0.00
2013-1-10,45.0,34.3,24.6,37.4,17.8,8.4,90,54,23,29.56,28.98,7,3,12,0.60
2013-1-11,49.5,46.1,40.1,47.0,43.3,37.4,96,90,73,28.98,28.77,7,4,14,0.31
2013-1-12,51.1,37.8,24.8,41.0,21.7,7.6,73,52,40,29.12,28.79,9,4,15,0.00
2013-1-13,24.6,19.8,11.1,11.5,-0.7,-10.0,58,40,31,29.33,29.01,5,3,13,0.00
2013-1-14,26.6,15.7,8.2,-2.2,-5.6,-9.0,49,37,22,29.52,29.33,3,1,8,0.00
2013-1-15,31.5,19.1,10.4,2.8,-1.4,-4.1,53,41,24,29.51,29.21,5,1,8,0.03
2013-1-16,35.2,26.1,13.5,19.7,7.2,-2.0,59,45,26,29.21,28.93,10,4,19,0.00
2013-1-17,33.1,24.5,18.7,20.2,-1.0,-11.9,59,33,16,29.48,29.16,4,2,10,0.00
2013-1-18,43.2,32.2,18.7,18.7,10.9,-0.1,48,41,30,29.49,28.99,14,6,26,0.00
2013-1-19,47.3,38.7,19.9,20.7,15.5,-10.6,52,39,22,29.09,28.84,10,6,21,0.00
2013-1-20,21.4,14.5,9.7,-10.8,-15.3,-17.8,24,22,20,29.40,29.09,7,3,15,0.00
2013-1-21,11.8,6.4,0.5,-15.6,-23.5,-30.6,25,20,15,29.48,29.19,6,4,18,0.00
2013-1-22,13.8,4.4,-5.1,-18.9,-23.9,-28.7,28,21,15,29.47,29.35,6,2,12,0.00
2013-1-23,21.4,14.9,7.9,0.9,-10.8,-20.9,45,29,20,29.47,29.20,6,4,15,0.00
2013-1-24,21.7,12.6,2.3,-11.1,-16.7,-22.2,28,23,14,29.71,29.42,6,3,11,0.00
2013-1-25,32.9,22.6,15.8,5.5,-1.1,-13.8,51,35,20,29.43,29.05,8,4,15,0.00
2013-1-26,29.1,19.4,8.8,-2.1,-6.7,-9.9,42,30,20,29.47,29.29,5,2,8,0.00
2013-1-27,36.0,29.3,23.5,34.4,14.2,-3.0,94,55,30,29.43,28.97,8,5,16,0.02
2013-1-28,45.9,41.0,36.0,45.1,35.4,26.7,98,82,52,29.06,28.89,6,3,13,0.28
2013-1-29,60.4,51.5,38.1,59.4,49.6,34.9,99,93,71,28.91,28.58,7,3,15,0.86
2013-1-30,38.1,30.5,17.6,34.6,22.9,2.6,89,74,51,28.79,28.43,4,1,9,0.28
2013-1-31,17.6,11.1,-0.4,3.0,-8.5,-17.4,55,39,25,29.29,28.52,0,0,0,0.00
2013-2-1,12.9,3.8,-6.2,-1.7,-16.8,-23.3,51,34,23,29.44,29.21,0,0,0,0.00
2013-2-2,20.3,14.3,6.3,8.3,-4.9,-14.4,59,42,23,29.22,29.09,0,0,0,0.00
2013-2-3,25.5,17.6,9.5,6.4,-2.0,-8.3,55,42,27,29.16,29.06,0,0,0,0.00
2013-2-4,29.7,18.9,7.3,9.0,1.4,-9.5,61,46,31,29.15,28.98,4,0,8,0.00
2013-2-5,32.5,22.3,6.6,15.1,5.8,-9.8,55,48,41,29.19,28.92,6,2,11,0.00
2013-2-6,40.8,27.9,11.3,21.7,9.3,-1.9,59,46,30,29.32,29.17,6,2,10,0.22
2013-2-7,35.6,33.0,25.0,27.5,24.2,13.8,78,70,59,29.18,28.99,5,2,9,0.30
2013-2-8,31.1,24.4,19.9,14.5,8.1,2.8,64,50,34,29.49,29.14,2,0,4,0.00
2013-2-9,34.7,27.5,20.7,17.7,13.3,9.0,69,55,39,29.48,29.16,6,2,13,0.00
2013-2-10,42.3,36.4,25.3,42.0,31.5,16.3,99,83,58,29.17,28.58,12,6,23,0.69
2013-2-11,39.6,31.6,26.1,26.4,12.6,6.6,60,45,36,29.14,28.63,15,8,30,0.00
2013-2-12,32.9,26.0,22.3,11.6,7.4,4.5,61,45,33,29.21,29.01,6,2,13,0.00
2013-2-13,43.9,32.0,21.0,22.0,15.9,11.1,66,53,31,29.01,28.83,6,2,10,0.00
2013-2-14,40.8,35.4,30.9,22.5,15.8,5.6,58,46,27,29.10,28.75,6,3,17,0.00
2013-2-15,31.6,24.5,15.6,14.5,-2.5,-9.8,50,30,20,29.30,29.10,4,3,11,0.00
2013-2-16,23.9,14.7,8.4,-6.9,-12.0,-17.5,36,27,20,29.30,29.24,4,2,10,0.00
2013-2-17,32.9,20.0,6.1,7.3,-4.2,-11.8,47,34,20,29.30,29.06,8,3,16,0.00
2013-2-18,51.3,35.9,22.3,38.7,18.5,6.5,82,51,32,29.06,28.60,8,5,17,0.31
2013-2-19,22.1,13.5,6.6,8.0,-6.8,-13.1,55,38,26,29.30,28.75,6,4,15,0.00
2013-2-20,25.0,13.3,4.1,-3.8,-9.5,-14.7,48,34,23,29.46,29.30,4,2,9,0.05
2013-2-21,28.2,21.3,10.6,17.1,5.7,-4.1,69,50,41,29.47,29.07,7,3,16,0.00
2013-2-22,37.2,28.4,24.6,17.9,15.0,11.3,72,57,43,29.07,28.91,6,4,11,0.00
2013-2-23,34.5,26.0,19.0,14.0,5.9,0.3,58,43,25,29.08,28.96,7,4,17,0.03
2013-2-24,41.2,25.6,11.8,7.5,3.4,-1.4,55,40,20,29.24,29.08,4,1,6,0.06
2013-2-25,44.8,31.7,19.0,16.0,9.2,3.0,58,41,20,29.26,29.08,4,2,9,0.00
2013-2-26,36.3,33.5,31.5,25.3,17.9,10.0,76,54,34,29.08,28.72,8,5,18,0.00
2013-2-27,38.1,32.6,29.3,22.8,19.8,16.2,70,59,43,28.89,28.71,4,2,8,0.05
2013-2-28,39.7,32.9,25.7,22.3,15.2,7.1,66,49,30,29.21,28.89,5,3,10,0.11
2013-3-1,29.7,24.8,19.2,8.5,5.0,0.3,49,42,35,29.33,29.19,6,3,13,0.00
2013-3-2,32.7,20.5,10.9,2.4,-4.5,-10.6,46,33,20,29.33,29.27,4,2,9,0.00
2013-3-3,37.0,21.2,5.7,1.9,-8.1,-16.4,49,29,10,29.27,29.17,3,1,5,0.00
2013-3-4,37.2,26.8,17.8,13.3,4.2,-10.1,48,37,26,29.23,29.09,6,3,15,0.00
2013-3-5,35.2,30.3,24.3,22.1,17.1,11.8,69,58,45,29.17,28.95,3,1,7,0.00
2013-3-6,38.5,30.2,24.8,13.1,11.3,8.0,59,46,30,29.40,29.17,3,2,7,0.03
2013-3-7,48.0,31.9,22.3,12.6,7.1,-1.3,54,38,14,29.51,29.40,4,1,8,0.19
2013-3-8,42.3,29.9,17.8,14.4,9.1,5.5,59,43,23,29.54,29.38,6,3,14,0.00
2013-3-9,40.8,36.1,28.9,27.0,18.7,11.3,64,49,35,29.38,28.92,8,5,15,0.11
2013-3-10,45.0,41.3,37.9,43.3,37.5,24.9,98,87,59,28.94,28.73,5,3,12,0.81
2013-3-11,40.5,35.3,31.6,39.8,32.3,20.5,99,89,63,28.92,28.68,4,1,10,0.14
2013-3-12,41.0,30.4,24.8,22.5,13.3,5.8,70,50,30,29.14,28.92,8,3,16,0.02
2013-3-13,36.0,26.8,20.3,7.3,-4.0,-23.9,49,28,6,29.62,29.14,5,3,12,0.00
2013-3-14,39.0,28.3,18.1,20.6,8.2,-3.2,69,43,23,29.67,29.18,6,2,11,0.00
2013-3-15,41.9,33.8,27.3,28.0,22.6,16.4,82,64,38,29.19,28.89,5,1,10,0.11
2013-3-16,37.4,31.5,28.6,26.5,12.3,3.4,78,47,27,29.24,28.88,5,2,10,0.00
2013-3-17,41.4,29.8,21.0,10.8,1.2,-5.5,46,30,16,29.32,29.09,5,3,11,0.03
2013-3-18,38.7,29.8,18.7,21.2,11.8,-2.8,59,47,36,29.09,28.75,9,4,22,0.08
2013-3-19,35.1,22.8,13.6,-2.1,-7.3,-14.1,40,26,12,29.20,28.92,8,6,17,0.00
2013-3-20,27.5,17.8,9.7,-9.5,-14.7,-18.7,30,21,13,29.24,29.15,6,4,15,0.00
2013-3-21,34.7,21.1,9.5,-6.1,-10.4,-16.7,36,24,12,29.18,29.11,4,1,10,0.00
2013-3-22,41.4,26.5,13.3,1.4,-6.3,-13.6,46,25,10,29.18,29.12,4,1,7,0.00
2013-3-23,45.7,32.5,21.2,13.7,-0.3,-10.8,48,27,10,29.23,29.14,4,1,8,0.00
2013-3-24,39.0,32.3,29.3,19.3,12.3,7.6,64,44,30,29.16,28.85,7,4,14,0.00
2013-3-25,40.1,32.1,26.8,11.5,7.9,3.4,45,36,24,29.21,28.91,5,3,10,0.03
2013-3-26,46.4,36.5,31.1,11.7,5.1,-6.9,43,29,12,29.36,29.20,4,1,8,0.00
2013-3-27,45.3,36.3,27.0,13.1,2.0,-10.2,42,25,10,29.42,29.36,3,1,8,0.00
2013-3-28,51.1,36.9,23.0,16.2,-0.2,-13.2,52,26,6,29.44,29.36,3,1,8,0.00
2013-3-29,55.8,42.7,29.7,11.5,-2.9,-15.3,37,17,5,29.42,29.31,3,1,7,0.00
2013-3-30,59.4,45.3,32.5,31.0,12.0,1.8,57,27,12,29.34,28.96,10,4,22,0.00
2013-3-31,58.5,44.2,33.6,35.3,18.4,-0.6,71,40,11,29.04,28.87,6,4,17,0.00
2013-4-1,42.8,33.2,26.8,1.3,-7.4,-25.8,31,18,5,29.30,29.04,6,3,14,0.00
2013-4-2,46.8,33.3,23.4,5.2,-10.9,-25.8,41,17,5,29.42,29.25,5,2,16,0.00
2013-4-3,51.1,35.9,22.1,2.5,-12.5,-24.4,34,14,5,29.53,29.38,4,1,10,0.00
2013-4-4,60.6,43.6,27.7,17.2,-3.3,-15.3,33,16,5,29.39,29.08,8,3,17,0.00
2013-4-5,55.8,42.9,32.2,13.8,0.6,-15.3,42,20,5,29.33,29.14,7,3,13,0.00
2013-4-6,67.1,49.9,36.0,40.5,8.7,-8.3,63,24,5,29.23,28.73,13,6,26,0.11
2013-4-7,63.0,50.1,39.0,39.5,19.9,6.6,61,34,12,29.06,28.75,6,3,13,0.00
2013-4-8,68.2,52.6,38.8,52.4,34.2,20.3,93,53,23,29.07,28.65,7,4,14,0.69
2013-4-9,52.2,43.6,39.7,37.2,34.4,30.6,82,70,54,29.10,28.96,7,4,16,0.23
2013-4-10,43.7,39.2,34.5,37.7,33.4,28.2,92,80,71,29.12,28.96,7,4,17,1.11
2013-4-11,45.3,41.0,37.6,41.4,37.8,33.0,93,88,80,28.98,28.70,8,4,18,0.22
2013-4-12,45.3,38.4,35.6,33.0,25.7,17.2,80,61,44,28.96,28.69,8,4,12,0.03
2013-4-13,46.0,38.7,32.7,17.9,10.1,1.4,48,32,17,29.09,28.95,7,4,16,0.00
2013-4-14,66.0,49.1,36.0,32.1,15.7,7.2,43,28,12,29.10,28.71,10,5,21,0.00
2013-4-15,64.8,56.1,46.0,47.8,32.4,5.4,81,47,11,29.01,28.73,12,4,26,0.22
2013-4-16,59.7,47.4,35.1,29.5,12.7,-2.6,68,31,8,29.36,29.10,4,2,12,0.00
2013-4-17,46.9,43.1,40.3,46.4,29.7,10.1,98,65,25,29.38,28.88,7,4,16,2.11
2013-4-18,62.1,50.0,38.3,59.9,45.4,20.8,99,86,46,28.94,28.54,13,5,24,1.60
2013-4-19,44.2,37.5,33.3,22.0,15.5,7.0,54,41,23,29.05,28.60,12,7,26,0.00
2013-4-20,52.3,38.3,27.3,12.9,-3.9,-24.5,49,22,5,29.47,29.05,4,2,14,0.00
2013-4-21,56.7,47.0,32.0,17.1,0.8,-15.3,40,18,5,29.54,29.37,9,6,21,0.00
2013-4-22,70.9,54.8,39.7,20.7,6.9,-10.1,46,20,5,29.38,29.13,8,5,15,0.00
2013-4-23,55.0,45.0,38.7,39.6,30.9,14.4,68,59,20,29.14,29.03,7,2,10,0.47
2013-4-24,49.8,40.2,35.6,22.6,11.3,-11.6,52,35,7,29.18,29.06,6,3,12,0.00
2013-4-25,56.3,45.2,38.1,27.5,6.5,-15.3,58,26,5,29.39,29.13,9,4,15,0.00
2013-4-26,70.0,53.8,37.0,26.7,7.4,-8.0,37,18,5,29.39,29.28,12,6,21,0.00
2013-4-27,71.4,58.2,43.9,36.2,15.3,-8.3,62,27,5,29.36,29.10,7,2,14,0.00
2013-4-28,73.9,60.5,53.2,38.1,26.2,14.9,53,28,11,29.10,28.93,3,1,6,0.00
2013-4-29,74.5,63.0,50.2,45.4,33.8,12.4,75,41,10,29.01,28.84,9,4,18,0.00
2013-4-30,88.7,73.1,60.1,49.6,26.3,-0.9,67,29,5,29.03,28.85,11,7,23,0.00
2013-5-1,88.3,74.5,62.1,42.9,20.7,-1.2,45,19,5,29.27,29.03,8,4,15,0.00
2013-5-2,62.2,51.6,42.4,39.4,28.7,15.4,60,43,20,29.35,29.24,6,3,11,0.22
2013-5-3,51.8,45.4,39.4,42.6,36.5,29.1,76,71,59,29.30,29.04,6,3,12,0.31
2013-5-4,74.5,60.2,50.0,42.9,31.4,1.0,75,41,6,29.18,29.04,6,2,12,0.00
2013-5-5,78.1,62.8,48.2,43.3,18.6,-8.3,76,30,5,29.15,29.08,5,2,10,0.00
2013-5-6,77.4,63.6,49.6,27.9,8.6,-9.8,41,16,5,29.17,29.07,4,1,8,0.00
2013-5-7,83.8,67.8,53.4,26.5,5.5,-7.6,33,11,5,29.16,29.08,3,1,6,0.00
2013-5-8,87.1,68.4,51.6,29.9,11.7,-5.5,39,15,5,29.15,29.06,3,1,6,0.00
2013-5-9,74.5,62.3,48.9,54.6,39.4,11.4,83,47,13,29.07,28.95,5,2,12,0.80
2013-5-10,53.4,48.9,45.3,43.9,36.5,31.3,85,63,45,29.09,28.93,4,2,9,0.22
2013-5-11,63.3,50.2,42.1,43.6,13.5,-15.3,80,37,5,29.16,28.95,6,3,18,0.00
2013-5-12,60.3,47.8,37.0,8.7,-5.1,-15.3,30,12,5,29.23,29.16,4,2,11,0.00
2013-5-13,69.6,54.4,34.2,22.6,-0.1,-12.9,50,16,5,29.29,29.06,4,1,9,0.00
2013-5-14,93.0,73.7,53.8,28.4,12.6,-1.0,25,11,5,29.06,28.75,7,4,15,0.00
2013-5-15,86.2,74.8,62.6,24.1,6.0,-7.9,15,7,5,28.98,28.75,5,2,11,0.00
2013-5-16,88.9,70.8,55.8,33.8,11.8,-8.3,40,14,5,29.06,28.97,4,1,10,0.00
2013-5-17,79.0,66.0,59.9,24.2,8.2,-6.7,25,11,5,29.14,29.06,5,2,10,0.00
2013-5-18,84.4,70.2,55.4,58.8,37.2,21.7,72,35,11,29.14,29.04,5,2,11,0.00
2013-5-19,91.2,74.9,63.1,64.6,60.1,56.4,87,63,37,29.06,28.85,8,3,17,0.42
2013-5-20,86.2,74.8,64.6,66.0,58.8,53.3,91,60,36,28.89,28.79,9,5,19,0.25
2013-5-21,82.2,70.3,62.1,63.4,58.1,53.1,92,68,42,28.82,28.77,9,4,20,0.00
2013-5-22,76.8,66.4,61.7,62.0,56.0,50.3,87,70,42,28.87,28.75,6,2,12,0.03
2013-5-23,63.3,55.6,43.2,56.5,45.8,33.1,93,71,47,29.37,28.87,4,2,10,0.19
2013-5-24,68.2,53.2,37.6,37.1,33.1,28.8,81,50,27,29.51,29.37,4,1,7,0.00
2013-5-25,59.0,53.2,47.8,38.9,35.2,28.7,59,51,33,29.46,29.36,4,1,7,0.00
2013-5-26,69.1,55.9,46.4,52.3,42.0,31.9,86,61,36,29.37,29.21,5,2,10,0.08
2013-5-27,59.2,56.4,51.3,57.2,53.5,47.2,96,90,84,29.23,28.96,4,2,9,0.06
2013-5-28,77.4,66.7,54.7,69.6,63.0,53.6,99,88,71,28.96,28.81,9,3,15,0.27
2013-5-29,84.6,73.1,62.6,66.3,63.6,59.8,96,74,50,29.04,28.88,7,3,14,0.00
2013-5-30,86.0,74.5,63.3,66.4,63.6,60.1,93,70,47,29.00,28.84,12,6,21,0.47
2013-5-31,75.0,68.9,62.4,66.4,62.3,57.0,96,81,57,28.93,28.81,10,5,19,0.12
2013-6-1,77.4,69.9,64.9,66.9,61.5,55.0,94,75,59,28.83,28.75,8,3,16,0.00
2013-6-2,64.9,58.3,49.8,57.0,46.5,40.6,85,65,52,29.12,28.83,3,1,6,0.00
2013-6-3,74.7,60.7,46.9,47.4,43.9,40.3,88,58,30,29.19,29.09,4,1,6,0.00
2013-6-4,74.8,63.6,53.1,47.1,43.0,37.8,71,49,31,29.25,29.13,4,2,9,0.00
2013-6-5,69.1,59.5,53.8,57.7,50.0,42.3,87,72,51,29.21,29.03,4,1,7,0.33
2013-6-6,65.8,57.7,53.6,55.1,51.8,46.4,93,81,67,29.05,28.97,2,1,6,0.44
2013-6-7,75.0,62.2,54.3,52.9,45.7,38.8,78,57,33,29.06,29.00,3,1,7,0.00
2013-6-8,78.1,64.5,48.4,47.6,42.4,36.8,82,48,25,29.07,29.02,3,1,7,0.00
2013-6-9,81.9,69.2,58.8,61.4,52.2,39.1,88,57,37,29.08,28.89,7,3,15,0.08
2013-6-10,83.7,71.2,61.0,63.7,59.9,57.6,92,70,44,28.97,28.87,2,1,6,0.09
2013-6-11,85.1,73.7,60.8,63.0,59.8,55.5,87,64,40,29.02,28.89,7,1,11,0.00
2013-6-12,88.3,73.3,65.7,72.1,64.1,60.2,88,74,53,29.02,28.72,7,1,14,0.27
2013-6-13,83.1,70.7,61.2,61.8,55.2,49.8,89,61,33,29.14,28.78,2,1,6,0.00
2013-6-14,81.9,68.1,55.6,56.3,51.6,47.8,76,57,38,29.23,29.08,4,1,10,0.00
2013-6-15,81.1,69.9,61.0,67.4,59.8,49.1,90,71,59,29.13,28.93,5,2,14,0.06
2013-6-16,89.1,76.7,67.3,65.9,57.3,48.6,82,55,27,29.03,28.97,5,1,11,0.00
2013-6-17,92.1,75.8,61.7,56.8,51.9,44.7,76,47,20,29.04,28.95,4,1,14,0.00
2013-6-18,79.7,66.2,57.6,55.8,51.2,42.6,75,60,40,29.17,29.03,3,2,7,0.00
2013-6-19,82.6,67.6,52.7,56.1,47.3,40.6,68,49,35,29.22,29.13,3,1,8,0.00
2013-6-20,90.7,75.2,59.2,60.6,52.8,41.4,62,47,32,29.22,29.12,4,2,10,0.00
2013-6-21,77.0,72.8,69.4,66.9,62.8,57.2,91,71,59,29.17,29.06,5,2,11,0.22
2013-6-22,80.6,72.5,65.3,72.7,67.0,63.0,96,84,67,29.19,29.02,7,3,14,2.16
2013-6-23,89.8,74.3,68.0,70.4,65.7,61.0,89,76,51,29.12,28.99,6,3,13,0.19
2013-6-24,83.5,71.3,66.9,68.9,65.7,63.3,94,83,58,29.15,28.94,7,2,12,0.22
2013-6-25,82.6,73.0,65.5,73.3,68.2,62.6,95,86,68,29.05,28.90,6,1,16,1.00
2013-6-26,79.2,72.8,65.8,72.3,68.1,65.0,98,86,69,28.91,28.82,4,1,8,2.05
2013-6-27,91.2,78.6,69.3,70.8,65.1,55.9,94,66,37,28.90,28.81,5,2,14,0.00
2013-6-28,84.0,72.0,65.8,63.5,59.5,54.9,91,66,39,28.85,28.73,4,1,10,0.14
2013-6-29,70.7,65.8,62.4,63.3,60.5,53.7,94,84,59,28.89,28.72,2,0,4,1.08
2013-6-30,80.8,69.0,60.8,58.7,52.2,44.9,79,57,31,29.10,28.89,3,1,6,0.00
2013-7-1,81.1,68.9,56.8,52.6,46.8,40.4,68,48,26,29.16,29.08,4,1,11,0.00
2013-7-2,79.5,66.8,57.4,53.0,47.5,33.0,75,53,21,29.17,29.12,3,1,8,0.00
2013-7-3,70.9,64.7,58.1,59.9,55.7,50.2,87,73,65,29.15,29.10,2,0,5,0.00
2013-7-4,86.4,72.3,58.8,62.4,58.4,51.5,92,65,38,29.16,29.08,6,2,12,0.00
2013-7-5,88.5,75.5,63.5,63.4,59.3,56.5,79,59,36,29.15,29.08,6,2,12,0.00
2013-7-6,89.4,76.2,64.2,65.8,61.4,56.5,83,62,39,29.13,29.04,6,2,12,0.00
2013-7-7,92.3,80.1,70.7,70.4,66.2,62.8,86,65,40,29.08,29.02,5,3,13,0.00
2013-7-8,88.0,79.3,70.3,73.7,70.6,66.9,93,76,60,29.08,29.01,6,3,12,0.77
2013-7-9,84.2,79.0,73.6,74.2,72.5,69.7,92,81,67,29.07,28.95,5,2,13,0.14
2013-7-10,85.5,77.2,68.7,74.0,62.8,53.3,91,64,38,29.09,28.95,2,1,9,0.00
2013-7-11,84.2,72.3,61.2,59.1,54.3,47.1,86,56,30,29.20,29.09,2,0,5,0.00
2013-7-12,86.9,72.6,58.8,54.2,51.2,44.2,78,50,24,29.23,29.15,3,1,6,0.00
2013-7-13,87.3,74.9,63.3,59.4,55.8,52.1,75,53,33,29.23,29.16,4,2,9,0.00
2013-7-14,90.0,78.2,66.9,66.7,62.9,57.8,82,61,43,29.29,29.22,4,1,8,0.00
2013-7-15,94.5,81.6,71.2,71.6,68.3,64.5,81,66,41,29.33,29.27,4,1,7,0.00
2013-7-16,94.3,83.6,74.8,73.2,71.2,69.2,86,68,46,29.36,29.30,4,2,9,0.00
2013-7-17,94.6,84.4,75.6,73.1,70.9,68.8,84,66,45,29.37,29.25,4,1,10,0.00
2013-7-18,96.1,85.0,76.1,72.7,70.7,67.7,84,64,43,29.26,29.03,5,2,16,0.00
2013-7-19,96.1,85.2,78.1,71.8,69.3,66.4,76,60,41,29.03,28.86,7,3,18,0.00
2013-7-20,89.8,77.6,68.0,66.2,61.4,56.9,81,60,36,29.03,28.90,3,1,7,0.00
2013-7-21,88.7,73.5,65.5,70.1,62.5,57.9,83,70,47,29.04,28.93,6,2,16,0.00
2013-7-22,90.3,76.6,65.5,68.7,63.7,60.7,88,67,41,28.98,28.83,7,2,13,0.25
2013-7-23,81.3,70.4,61.9,63.1,56.9,50.2,89,65,37,29.06,28.81,8,1,15,0.00
2013-7-24,79.5,66.4,56.1,54.6,50.8,45.5,87,60,34,29.14,29.06,2,0,6,0.00
2013-7-25,83.1,69.8,56.5,59.3,54.9,51.4,83,61,40,29.17,29.10,5,2,10,0.00
2013-7-26,74.7,67.3,61.7,67.0,61.2,55.3,94,81,65,29.14,28.95,6,2,12,0.39
2013-7-27,66.0,60.0,56.1,55.3,48.0,43.3,87,66,46,29.04,28.97,4,1,9,0.00
2013-7-28,71.4,61.3,54.5,50.0,47.6,45.1,76,62,41,29.10,28.95,3,1,8,0.00
2013-7-29,78.3,66.3,55.4,56.8,52.6,49.0,80,63,44,29.23,29.10,2,1,6,0.00
2013-7-30,71.6,64.7,58.8,63.5,58.9,54.2,94,82,64,29.23,29.15,4,1,8,0.08
2013-7-31,78.3,69.0,63.7,64.7,62.3,57.6,94,80,59,29.15,29.03,2,0,6,0.03
2013-8-1,82.0,70.4,62.1,59.5,55.1,48.5,90,62,33,29.08,29.01,3,1,14,0.00
2013-8-2,86.9,73.5,63.5,65.8,59.1,54.9,85,63,39,29.04,28.94,3,1,8,0.05
2013-8-3,83.8,71.2,60.3,56.3,51.0,42.6,78,52,25,29.20,29.04,2,0,5,0.00
2013-8-4,81.9,68.4,57.0,58.3,52.8,48.1,81,60,33,29.28,29.18,3,0,6,0.00
2013-8-5,75.2,66.0,60.1,64.2,58.1,52.7,88,76,54,29.19,28.95,7,2,12,0.14
2013-8-6,82.0,72.9,66.6,71.2,68.0,63.3,96,85,65,28.98,28.90,3,1,8,2.13
2013-8-7,88.3,76.5,68.5,71.1,65.9,59.9,95,72,46,29.05,28.87,3,1,8,0.00
2013-8-8,80.8,70.9,63.9,62.2,58.4,50.2,89,66,46,29.11,29.05,3,1,7,0.00
2013-8-9,84.2,71.6,59.4,62.2,57.3,48.4,79,61,45,29.13,29.05,3,1,8,0.00
2013-8-10,82.8,70.1,59.9,58.8,54.7,49.6,85,61,33,29.21,29.13,2,0,6,0.00
2013-8-11,80.6,68.5,58.6,67.2,60.1,54.1,92,76,48,29.21,29.10,4,1,10,0.11
2013-8-12,83.7,73.4,66.0,66.6,63.5,58.6,92,73,53,29.10,28.97,3,1,8,0.00
2013-8-13,74.5,64.7,56.7,59.0,47.7,40.1,83,56,30,29.22,29.04,3,1,9,0.00
2013-8-14,77.4,63.6,52.9,52.3,49.0,44.9,87,61,35,29.28,29.19,2,0,5,0.00
2013-8-15,79.5,66.3,56.3,54.6,51.1,48.6,76,60,38,29.23,29.15,4,1,9,0.00
2013-8-16,84.0,69.1,56.1,55.6,51.7,46.2,86,58,28,29.25,29.19,2,0,5,0.00
2013-8-17,84.2,70.2,57.7,57.0,52.4,49.8,79,55,33,29.31,29.23,3,1,8,0.00
2013-8-18,83.7,70.1,57.4,58.7,54.2,51.2,83,59,37,29.29,29.17,3,1,8,0.00
2013-8-19,85.1,72.1,59.9,62.0,58.3,54.2,83,64,43,29.19,29.10,4,1,10,0.00
2013-8-20,79.3,75.7,72.7,63.3,62.6,61.8,72,64,56,29.13,29.10,3,2,6,0.00
2013-8-21,91.2,79.0,69.4,66.9,64.3,62.8,81,63,42,29.14,29.04,7,3,13,0.00
2013-8-22,77.2,70.9,66.0,68.6,66.0,63.8,96,85,69,29.22,29.07,5,1,10,1.08
2013-8-23,84.9,71.3,60.1,64.2,55.0,48.1,94,61,32,29.25,29.18,4,1,9,0.00
2013-8-24,86.2,72.6,60.3,65.1,59.7,49.6,86,65,42,29.31,29.22,6,2,11,0.00
2013-8-25,90.5,77.9,67.6,68.1,62.7,56.7,78,61,38,29.30,29.20,7,3,14,0.00
2013-8-26,91.8,79.1,68.4,71.0,66.6,61.9,81,67,49,29.22,29.07,5,2,12,0.00
2013-8-27,94.6,82.9,73.8,71.4,68.9,67.0,84,65,45,29.08,28.92,7,3,16,0.00
2013-8-28,85.8,78.3,71.4,70.8,68.0,64.7,83,71,56,29.12,28.93,2,1,5,0.00
2013-8-29,88.2,76.1,68.0,68.8,66.1,64.0,93,73,46,29.17,29.06,4,1,9,0.00
2013-8-30,95.9,78.9,70.3,73.7,69.1,63.8,91,75,41,29.06,28.83,5,2,11,0.19
2013-8-31,81.3,72.4,66.7,68.3,66.0,63.4,91,81,65,28.97,28.88,2,1,5,0.03
2013-9-1,86.2,74.1,63.5,70.1,64.7,58.9,93,74,54,28.93,28.81,2,1,9,0.00
2013-9-2,76.1,67.5,59.9,59.8,56.3,51.8,85,68,46,29.08,28.93,2,0,4,0.00
2013-9-3,77.2,63.9,52.7,54.1,51.9,47.9,89,68,39,29.17,29.08,3,0,7,0.00
2013-9-4,83.5,68.8,54.7,61.8,56.7,51.2,89,68,40,29.19,29.11,3,1,9,0.00
2013-9-5,79.2,69.4,60.8,64.6,56.0,46.3,94,64,42,29.31,29.17,4,1,8,0.00
2013-9-6,86.5,72.6,60.1,64.8,57.2,46.2,72,59,44,29.28,29.08,6,2,11,0.00
2013-9-7,89.6,75.0,67.1,64.5,61.7,59.0,83,66,39,29.08,28.96,5,2,11,0.00
2013-9-9,91.9,86.8,80.1,72.6,70.8,67.7,74,60,51,28.96,28.88,6,4,14,0.00
2013-9-10,95.4,83.7,73.0,67.7,60.3,49.1,67,48,22,29.06,28.95,6,3,15,0.00
2013-9-11,85.3,76.6,71.8,70.7,64.3,61.4,80,66,47,29.13,29.05,4,1,7,0.06
2013-9-12,80.4,69.1,59.9,63.4,53.3,44.1,88,60,33,29.17,29.06,3,1,10,0.00
2013-9-13,69.3,59.0,50.0,49.3,38.9,30.7,68,50,25,29.27,29.17,3,1,7,0.00
2013-9-14,73.8,59.4,45.5,46.9,42.6,40.6,85,57,32,29.24,29.08,5,2,11,0.00
2013-9-15,61.2,56.6,53.4,55.6,51.0,41.7,93,83,49,29.25,29.07,4,1,8,1.16
2013-9-16,68.4,57.1,48.7,54.0,45.0,39.6,93,66,39,29.42,29.25,2,1,7,0.00
2013-9-17,71.8,59.1,46.9,53.5,48.7,42.1,87,70,49,29.38,29.16,6,2,13,0.00
2013-9-18,75.0,66.7,59.2,67.9,59.9,51.3,89,79,64,29.16,28.98,6,3,10,0.11
2013-9-19,89.6,77.2,69.1,71.6,66.1,61.7,95,71,45,29.01,28.83,6,3,18,0.11
2013-9-20,73.2,66.6,57.6,64.7,57.9,48.5,91,75,53,28.94,28.85,4,2,12,0.05
2013-9-21,67.1,57.3,49.8,50.9,46.5,43.0,89,69,45,29.03,28.92,3,1,8,0.00
2013-9-22,68.0,55.6,44.8,47.4,44.1,41.3,90,68,41,29.13,29.03,2,1,7,0.00
2013-9-23,71.4,58.3,48.4,49.3,46.2,43.0,85,66,43,29.18,29.08,4,2,9,0.00
2013-9-24,73.4,60.3,49.8,50.2,46.9,43.7,84,64,38,29.11,29.00,4,1,10,0.00
2013-9-25,74.1,59.9,48.6,53.0,47.2,44.8,89,66,36,29.05,28.99,3,1,9,0.00
2013-9-26,78.3,62.7,48.6,54.1,48.4,42.8,93,64,32,29.14,29.04,4,1,8,0.00
2013-9-27,81.1,67.2,55.9,55.1,49.7,45.5,82,57,31,29.21,29.09,7,2,14,0.00
2013-9-28,81.9,67.4,56.3,64.7,53.3,44.5,89,62,40,29.12,28.94,10,4,22,0.06
2013-9-29,70.7,59.4,52.0,54.1,45.4,37.8,92,64,32,29.16,29.05,2,0,5,0.03
2013-9-30,74.3,61.1,46.6,49.2,43.3,37.5,82,56,27,29.08,28.93,6,2,14,0.00
2013-10-1,82.0,68.8,58.1,61.8,57.2,47.5,92,69,42,29.04,28.94,8,2,16,0.00
2013-10-2,79.9,67.0,55.0,59.3,47.2,34.3,88,55,21,29.17,29.04,3,1,7,0.00
2013-10-3,75.2,68.3,61.9,67.1,61.6,44.4,95,80,52,29.06,28.91,4,2,8,0.14
2013-10-4,70.7,67.8,64.4,69.2,65.8,62.0,96,94,87,29.07,28.98,5,2,9,0.99
2013-10-5,75.2,68.9,61.3,70.2,65.0,45.5,97,88,56,29.01,28.86,6,2,10,0.00
2013-10-6,61.0,52.5,45.9,46.2,40.2,35.6,80,64,42,28.88,28.79,5,2,11,0.00
2013-10-7,68.5,54.9,45.5,45.8,42.7,39.9,86,66,37,29.14,28.84,3,1,7,0.00
2013-10-8,76.1,60.0,45.1,50.3,43.5,38.9,88,59,28,29.23,29.14,6,2,12,0.00
2013-10-9,73.8,61.2,49.8,48.6,42.2,32.9,79,53,24,29.29,29.18,4,2,10,0.00
2013-10-10,75.2,61.1,48.6,49.9,47.2,43.4,85,63,35,29.23,29.10,4,1,10,0.00
2013-10-11,75.7,64.7,56.1,56.4,51.7,47.6,80,64,46,29.12,28.99,8,3,16,0.00
2013-10-12,70.2,62.3,49.1,59.0,48.8,37.2,84,63,35,29.24,28.99,5,2,12,0.00
2013-10-13,63.7,51.1,40.6,40.1,35.4,29.0,82,58,30,29.45,29.24,2,0,6,0.00
2013-10-14,64.2,50.8,37.8,44.8,38.5,32.5,83,65,40,29.46,29.17,4,1,10,0.00
2013-10-15,64.8,55.0,47.7,60.2,47.3,39.4,96,76,64,29.17,28.83,6,3,10,0.33
2013-10-16,53.2,50.3,46.9,46.6,44.0,39.4,87,79,72,29.02,28.90,4,2,12,0.00
2013-10-17,52.9,48.3,41.9,46.4,43.3,38.2,92,83,61,29.00,28.91,2,1,6,0.28
2013-10-18,49.1,44.7,38.3,41.5,37.0,34.4,90,75,59,29.03,28.90,4,1,11,0.00
2013-10-19,54.5,44.6,37.9,38.8,35.5,29.3,85,72,40,29.00,28.85,5,1,14,0.03
2013-10-20,56.1,46.1,35.4,43.8,38.3,32.8,92,75,57,28.94,28.80,5,1,12,0.00
2013-10-21,51.4,42.7,33.3,40.9,27.7,19.6,71,56,40,29.04,28.87,4,2,10,0.00
2013-10-22,41.4,35.5,28.8,32.0,27.1,22.3,86,72,52,29.06,28.98,3,0,6,0.00
2013-10-23,45.7,36.9,30.2,29.2,25.7,22.7,86,65,46,29.09,29.01,3,1,6,0.00
2013-10-24,42.6,37.6,32.9,25.9,22.7,18.2,67,55,42,29.36,29.08,3,1,8,0.00
2013-10-25,52.5,40.2,26.8,28.7,22.9,19.5,75,52,34,29.44,29.09,7,3,18,0.00
2013-10-26,54.1,45.3,36.0,33.0,26.0,21.8,66,47,36,29.15,28.92,7,3,16,0.00
2013-10-27,54.7,41.5,29.8,30.5,26.5,23.8,79,57,35,29.16,29.02,5,1,13,0.00
2013-10-28,50.2,42.1,35.1,36.6,31.1,26.5,81,65,58,29.43,29.11,3,1,8,0.00
2013-10-29,59.7,46.9,37.4,39.8,34.5,28.1,84,64,34,29.43,29.20,4,2,8,0.00
2013-10-30,57.4,52.8,48.6,56.8,50.2,38.7,98,91,68,29.20,28.84,7,2,20,0.52
2013-10-31,62.1,56.5,44.8,60.8,54.7,38.8,98,94,80,28.84,28.39,6,3,13,0.75
2013-11-1,47.7,44.6,40.8,43.0,39.2,36.6,92,81,73,28.85,28.52,5,2,10,0.06
2013-11-2,48.9,41.3,34.7,38.8,34.8,30.5,95,79,53,29.22,28.84,2,1,6,0.00
2013-11-3,51.8,40.4,29.7,38.2,31.3,27.1,93,72,44,29.36,29.22,6,2,16,0.00
2013-11-4,56.8,49.2,42.6,41.5,36.6,32.6,70,62,49,29.28,29.12,9,5,20,0.00
2013-11-5,54.5,51.6,49.8,51.1,46.3,41.5,96,82,70,29.30,28.99,9,4,17,0.05
2013-11-6,56.1,45.1,32.9,55.3,39.8,23.2,98,82,61,29.30,28.84,7,3,15,0.39
2013-11-7,41.0,34.4,27.5,30.0,26.0,22.0,82,71,57,29.31,29.25,4,1,8,0.00
2013-11-8,48.4,38.4,26.2,31.1,27.3,22.6,89,66,45,29.38,28.94,8,3,20,0.00
2013-11-9,59.0,48.2,38.1,37.4,32.3,20.9,67,54,43,29.20,28.90,9,5,17,0.00
2013-11-10,49.8,41.1,32.7,29.1,26.1,23.4,72,56,39,29.40,29.20,5,2,10,0.00
2013-11-11,45.0,35.3,20.1,31.6,24.6,11.9,86,66,52,29.59,29.14,6,2,12,0.08
2013-11-12,32.0,23.4,17.4,15.2,11.4,9.7,72,60,43,29.75,29.59,4,1,10,0.06
2013-11-13,41.7,29.3,17.4,18.4,13.1,8.7,71,52,30,29.63,29.20,9,5,18,0.00
2013-11-14,49.6,39.4,30.6,25.4,21.0,15.1,57,48,36,29.20,28.98,9,4,18,0.00
2013-11-15,54.3,43.2,34.7,33.9,26.6,20.5,75,53,36,29.04,28.97,6,4,12,0.00
2013-11-16,58.5,50.0,38.5,54.0,46.9,31.9,98,89,75,28.99,28.46,10,7,22,0.00
2013-11-17,67.8,53.1,39.9,60.7,48.0,30.9,98,83,67,28.85,28.25,11,6,22,0.72
2013-11-18,42.4,36.2,28.4,31.6,24.2,20.2,76,62,44,29.32,28.85,7,4,16,0.00
2013-11-19,43.0,32.0,22.6,26.8,21.3,17.0,82,66,43,29.41,29.29,5,2,9,0.00
2013-11-20,42.3,36.1,30.2,35.7,28.4,24.2,92,75,53,29.31,29.14,8,4,16,0.14
2013-11-21,46.2,42.1,37.4,39.6,37.0,34.5,91,82,73,29.29,29.15,3,1,6,0.00
2013-11-22,40.6,33.6,24.1,36.2,24.1,13.9,87,69,51,29.53,29.28,4,2,11,0.00
2013-11-23,24.3,19.9,12.2,13.9,3.0,-3.8,64,48,33,29.74,29.49,6,3,12,0.00
2013-11-24,28.0,18.6,9.5,4.7,0.8,-2.4,61,46,31,29.74,29.38,8,3,14,0.00
2013-11-25,31.3,27.4,20.7,24.1,17.0,4.7,77,65,45,29.38,28.97,9,5,19,0.00
2013-11-26,32.9,26.8,12.9,24.4,15.7,-1.0,79,63,43,29.28,29.10,5,2,14,0.00
2013-11-27,26.8,18.7,9.5,9.4,3.7,-2.9,59,51,41,29.35,29.26,4,2,9,0.00
2013-11-28,33.3,24.6,16.7,13.2,9.6,6.9,67,52,42,29.55,29.22,6,2,12,0.00
2013-11-29,35.1,24.8,12.9,18.0,11.9,5.9,74,59,42,29.66,29.42,5,2,10,0.00
2013-11-30,48.6,34.6,27.0,28.8,23.1,16.9,78,64,45,29.42,29.11,7,3,12,0.00
2013-12-1,43.0,33.8,26.6,26.4,23.5,19.8,82,67,46,29.21,29.06,3,1,7,0.00
2013-12-2,43.3,35.4,27.9,33.6,27.2,22.2,93,73,51,29.06,28.83,6,3,13,0.00
2013-12-3,44.2,40.5,35.4,44.0,39.6,33.6,99,96,93,28.83,28.76,4,2,9,0.00
2013-12-4,51.6,46.2,34.0,51.2,44.9,28.2,99,95,78,28.82,28.60,10,4,22,0.05
2013-12-5,33.8,23.9,17.4,28.1,11.3,3.6,80,59,46,29.34,28.80,8,4,20,0.00
2013-12-6,19.4,14.4,9.1,4.4,-0.0,-4.0,58,52,43,29.61,29.33,3,2,7,0.00
2013-12-7,18.9,10.8,5.0,-1.0,-3.7,-5.2,61,51,37,29.74,29.61,3,1,10,0.00
2013-12-8,25.3,19.6,11.1,19.2,9.6,-3.2,82,65,45,29.64,29.04,5,2,8,0.00
2013-12-9,23.2,12.0,-5.3,18.7,2.1,-14.3,84,63,48,29.29,29.03,10,4,19,0.00
2013-12-10,23.2,10.4,-7.4,7.4,-2.4,-15.2,65,55,42,29.35,29.06,9,4,20,0.00
2013-12-11,19.6,10.2,-4.7,9.5,-2.3,-16.0,75,56,35,29.65,29.33,4,2,10,0.00
2013-12-12,18.7,8.4,-6.5,4.6,-4.2,-16.4,67,55,43,29.61,29.26,9,4,16,0.00
2013-12-13,31.3,22.3,12.4,23.1,12.3,4.4,82,66,46,29.27,29.17,4,2,10,0.00
2013-12-14,32.4,26.3,18.5,26.0,19.7,12.2,88,76,61,29.18,29.04,5,3,11,0.00
2013-12-15,21.4,13.3,10.0,14.7,-0.0,-5.6,75,54,45,29.21,29.04,5,3,14,0.00
2013-12-16,19.2,13.1,6.1,10.8,-0.2,-10.0,79,55,36,29.23,29.11,4,2,8,0.00
2013-12-17,36.7,24.9,16.3,22.5,15.1,8.0,88,67,46,29.19,29.03,6,4,15,0.06
2013-12-18,34.2,24.5,13.8,23.1,12.4,5.4,74,60,41,29.22,28.91,9,4,21,0.00
2013-12-19,37.9,31.5,25.2,32.0,25.6,19.8,95,79,59,29.03,28.91,4,2,8,0.05
2013-12-20,33.3,28.8,25.5,32.0,25.9,22.2,95,89,86,28.94,28.86,4,2,8,0.03
2013-12-21,32.5,27.8,25.3,31.1,25.4,22.6,96,90,84,28.99,28.75,4,1,8,0.00
2013-12-22,32.4,27.6,24.4,29.7,22.2,18.1,93,80,66,29.21,28.75,4,2,8,0.03
2013-12-23,24.3,6.7,-8.0,19.3,-2.9,-17.0,81,62,49,29.55,29.21,7,4,13,0.00
2013-12-24,15.8,1.2,-11.4,8.5,-9.3,-19.5,75,58,46,29.63,29.38,5,2,15,0.00
2013-12-25,25.9,21.9,15.8,19.7,14.8,8.5,84,74,68,29.38,29.18,7,4,12,0.00
2013-12-26,32.4,23.3,10.6,23.3,14.5,2.3,81,69,57,29.34,29.21,6,2,12,0.00
2013-12-27,37.8,29.5,18.5,27.6,22.1,14.2,86,74,59,29.35,29.15,7,3,15,0.00
2013-12-28,43.7,36.2,28.2,29.4,27.5,23.8,89,71,55,29.17,28.89,8,4,14,0.02
2013-12-29,36.1,23.7,0.9,29.4,14.1,-11.3,83,66,52,29.31,28.88,5,3,10,0.00
2013-12-30,10.9,1.3,-7.8,-5.8,-12.6,-19.8,59,48,35,29.41,29.27,4,1,6,0.00
2013-12-31,13.1,4.9,-3.6,-0.8,-4.8,-10.5,69,62,49,29.41,29.27,6,1,8,0.00
2014-1-1,16.2,10.0,5.9,7.6,0.3,-3.5,72,64,59,29.38,29.30,4,3,9,0.00
2014-1-2,16.2,7.9,-6.0,1.1,-4.1,-14.5,63,56,44,29.50,29.27,4,2,11,0.00